Showing default

CONNECTA IOT-16, 67390

Orbit data source: Space-Track

CONNECTA IOT-16, 67390 is a payload satellite owned by Plan-S (TR) in SSO that was launched on Sun, 11 Jan 2026 UTC via an FALCON 9 launch vehicle from the Air Force Western Test Range (AFWTR). Payload-class satellites include a variety of spacecraft equipped with specific instruments for various scientific and technological missions. These include communications satellites like Starlink; space stations such as the ISS; scientific satellites like the Hubble; Earth observation satellites from companies like Planet Labs, Umbra, and HawkEye 360; GPS; miniature CubeSats for education and research; and military/defense satellites.

Loading next visibility...
Identifier
67390, 2026-004AD
Orbit
SSO
Country
Flag of TRTR / TURK
Related business
Manufacturer
Plan-S
Mission
Operational Commercial Communications
Bus & Motor
CUBESAT 6U, Unknown motor
Mass
10 kg wet, 10 kg dry
Launch date (UTC)
2026-01-11 (8 months ago)
Launch vehicle
FALCON 9
Launch site
Air Force Western Test Range (AFWTR)
Object type
Payload
Rocket body
Debris
Shape & HBR
Box, 2.2 m
Radar Cross Section
0.080 m², Medium (>0.1 m² and < 1m²)

Expand to show TLE details & history
Last TLE update: 22 hours ago

TLE from 22 hours ago
0 CONNECTA IOT-16
1 67390U 26004AD  26263.88355312  .00005257  00000-0  25740-3 0  9991
2 67390  97.4654 261.5292 0004475  38.3349 321.8202 15.18597037 38262
Epoch: 2026-09-20T21:12Z
TLE epoch observation values (Epoch: 2026-09-20T21:12:18.989Z)
Latitude
-0.00008°
Longitude
-56.32125°
Altitude
510.743 km
Speed
7.61 km/s
True Right ascension
17h 26m 07s
True Declination
0° 00' 00"
Sunlit
Object was in daylight at epoch
Visualization orbit readout
Latitude
Unknown
Longitude
Unknown
Altitude
Unknown
Speed
Unknown
Apparent Right ascension
Unknown
Apparent Declination
Unknown
Sunlit
N/A
Visualization observer readout
Local Sidereal Time
12:35:17
Azimuth
Unknown
Elevation
Unknown
Doppler factor
Unknown
Orbital elements
Apogee altitude
510.131 km
Perigee altitude
503.969 km
Semi-major axis
6,885.187 km
Eccentricity
0.00045
Inclination
97.4654°
RAAN
261.5292°
Arg. of periapsis
38.3349°
True anomaly
321.78849°
Mean anomaly
321.8202°
Eccentric anomaly
321.80435°
Mean motion
3.799 °/min
Orbital period
94.76 mins
BSTAR
0.0002574
Loading maneuver chart data...
Computing Atmospheric mass density...
Loading historical data...
Loading historical data...
Loading historical data...
Loading historical data...
Loading historical data...
Loading historical data...
Loading historical data...

Documentation

Showing up to 5 results
|